Tracking 20083 objects as of 8-Dec-2019
HD Live streaming from Space Station
objects crossing your sky now

COSMOS 1528

Track COSMOS 1528 now!
10-day predictions
COSMOS 1528 is classified as:


NORAD ID: 14617
Int'l Code: 1984-001G
Perigee: 1,468.4 km
Apogee: 1,483.3 km
Inclination: 74.0 °
Period: 115.3 minutes
Semi major axis: 7846 km
RCS: 0.7124 m2 (medium)
Launch date: January 5, 1984
Source: Commonwealth of Independent States (former USSR) (CIS)
Launch site: PLESETSK MISSILE AND SPACE COMPLEX (PKMTR)
aabbcc
Your satellite tracking list
Your tracking list is empty




NASA's NSSDC Master Catalog

Two Line Element Set (TLE):
1 14617U 84001G   19341.87366338 -.00000027  00000-0 -76990-4 0  9990
2 14617  74.0084 272.7604 0009520  35.7221  32.3150 12.48997083638033
Source of the keplerian elements: AFSPC